Jackson, WY

9:28 PM MDT on October 20, 2017 (GMT -0600)
Jackson Hole

Weather History for KJAC - August, 2014

Change the Weather History Date:

Friday, August 15, 2014

  Actual Average Record
Temperature  
Mean Temperature 63 °F -  
Max Temperature 80 °F 77 °F 89 °F (1992)
Min Temperature 46 °F 38 °F 28 °F (1974)
Degree Days  
Heating Degree Days 2    
Growing Degree Days 13 (Base 50)    
Moisture  
Dew Point 49 °F    
Average Humidity 84    
Maximum Humidity 100    
Minimum Humidity 28    
Precipitation  
Precipitation 0.00 in - - ()
Sea Level Pressure  
Sea Level Pressure 30.24 in    
Wind  
Wind Speed 3 mph (North)    
Max Wind Speed 10 mph    
Max Gust Speed 25 mph    
Visibility 10 miles    
Events Thunderstorm    
Averages and records for this station are not official NWS values.
T = Trace of Precipitation, MM = Missing Value Source: NWS Daily Summary

Daily Weather History Graph

Daily Weather History Graph

Search for Another Location

Airport or City:

Trip Planner

Search our weather history database for the weather conditions in past years. The results will help you decide how hot, cold, wet, or windy it might be!

Date:

Astronomy

Aug. 15, 2014 Rise Set
Actual Time 6:27 AM MDT 8:26 PM MDT
Civil Twilight 5:56 AM MDT 8:57 PM MDT
Nautical Twilight 5:18 AM MDT 9:35 PM MDT
Astronomical Twilight 4:36 AM MDT 10:16 PM MDT
Moon 11:18 PM MDT (8/15) 12:26 PM MDT (8/15)
Length of Visible Light 15h 00m
Length of Day
13h 58m
Waning Gibbous, 68% of the Moon is Illuminated
Aug 15
Waning Gibbous
Aug 17
Last Quarter
Aug 25
New
Sep 2
First Quarter
Sep 8
Full

Hourly Weather History & Observations

Time (MDT) Temp. Windchill Dew Point Humidity Pressure Visibility Wind Dir Wind Speed Gust Speed Precip Events Conditions
12:15 AM 51.8 °F - 50.0 °F 94% 30.23 in 10.0 mi East 3.5 mph - N/A   Clear
12:35 AM 53.6 °F - 51.8 °F 94% 30.23 in 10.0 mi Calm Calm - N/A   Clear
12:55 AM 48.2 °F - 48.2 °F 100% 30.24 in 10.0 mi WNW 6.9 mph - N/A   Clear
1:15 AM 48.2 °F - 48.2 °F 100% 30.24 in 10.0 mi North 3.5 mph - N/A   Clear
1:35 AM 48.2 °F - 48.2 °F 100% 30.25 in 10.0 mi Calm Calm - N/A   Clear
1:55 AM 48.2 °F - 46.4 °F 93% 30.24 in 10.0 mi NE 3.5 mph - N/A   Partly Cloudy
2:15 AM 46.4 °F - 46.4 °F 100% 30.25 in 10.0 mi Calm Calm - N/A   Mostly Cloudy
2:35 AM 48.2 °F - 46.4 °F 93% 30.25 in 10.0 mi NNE 3.5 mph - N/A   Scattered Clouds
2:55 AM 48.2 °F - 48.2 °F 100% 30.24 in 10.0 mi North 3.5 mph - N/A   Scattered Clouds
3:15 AM 50.0 °F - 48.2 °F 94% 30.24 in 10.0 mi ENE 4.6 mph - N/A   Overcast
3:35 AM 50.0 °F - 48.2 °F 94% 30.24 in 10.0 mi Calm Calm - N/A   Overcast
3:55 AM 48.2 °F - 48.2 °F 100% 30.24 in 10.0 mi Calm Calm - N/A   Overcast
4:15 AM 48.2 °F - 48.2 °F 100% 30.24 in 10.0 mi North 5.8 mph - N/A   Overcast
4:35 AM 48.2 °F - 48.2 °F 100% 30.24 in 10.0 mi NNW 3.5 mph - N/A   Mostly Cloudy
4:55 AM 48.2 °F - 48.2 °F 100% 30.24 in 10.0 mi Calm Calm - N/A   Partly Cloudy
5:15 AM 48.2 °F - 46.4 °F 93% 30.25 in 10.0 mi Calm Calm - N/A   Clear
5:35 AM 46.4 °F 44.3 °F 46.4 °F 100% 30.24 in 10.0 mi North 4.6 mph - N/A   Clear
5:55 AM 46.4 °F - 46.4 °F 100% 30.25 in 10.0 mi Calm Calm - N/A   Clear
6:15 AM 46.4 °F 45.2 °F 46.4 °F 100% 30.27 in 10.0 mi West 3.5 mph - N/A   Scattered Clouds
6:35 AM 46.4 °F - 44.6 °F 93% 30.28 in 10.0 mi Calm Calm - N/A   Overcast
6:55 AM 46.4 °F 45.2 °F 42.8 °F 87% 30.27 in 10.0 mi NNE 3.5 mph - N/A   Scattered Clouds
7:51 AM 50.0 °F - 46.4 °F 87% 30.28 in 10.0 mi NNW 3.5 mph - N/A   Clear
8:55 AM 57.2 °F - 50.0 °F 77% 30.28 in 10.0 mi Calm Calm - N/A   Clear
10:20 AM 62.6 °F - 50.0 °F 63% 30.27 in 10.0 mi SSE 9.2 mph - N/A   Clear
10:52 AM 66.2 °F - 50.0 °F 56% 30.27 in 10.0 mi SSW 5.8 mph - N/A   Clear
11:51 AM 71.6 °F - 51.8 °F 50% 30.25 in 10.0 mi Calm Calm - N/A   Clear
12:55 PM 75.2 °F - 48.2 °F 38% 30.23 in 10.0 mi Calm Calm - N/A   Clear
1:51 PM 80.6 °F - 48.2 °F 32% 30.21 in 10.0 mi SSE 6.9 mph - N/A   Scattered Clouds
2:52 PM 78.8 °F - 42.8 °F 28% 30.18 in 10.0 mi South 10.4 mph - N/A Thunderstorm Scattered Clouds
4:52 PM 64.4 °F - 51.8 °F 64% 30.22 in 10.0 mi West 8.1 mph 25.3 mph N/A   Overcast
5:51 PM 62.6 °F - 51.8 °F 68% 30.25 in 10.0 mi Calm Calm - N/A   Overcast
6:51 PM 68.0 °F - 51.8 °F 56% 30.23 in 10.0 mi ENE 9.2 mph - N/A   Partly Cloudy
7:51 PM 64.4 °F - 51.8 °F 64% 30.22 in 10.0 mi Calm Calm - N/A   Clear
8:55 PM 55.4 °F - 51.8 °F 88% 30.22 in 10.0 mi North 4.6 mph - N/A   Clear
9:15 PM 55.4 °F - 51.8 °F 88% 30.23 in 10.0 mi ENE 4.6 mph - N/A   Clear
9:35 PM 55.4 °F - 51.8 °F 88% 30.23 in 10.0 mi NNE 3.5 mph - N/A   Clear
9:55 PM 55.4 °F - 51.8 °F 88% 30.23 in 10.0 mi Calm Calm - N/A   Clear
10:15 PM 51.8 °F - 48.2 °F 88% 30.23 in 10.0 mi NW 5.8 mph - N/A   Clear
10:35 PM 51.8 °F - 50.0 °F 94% 30.24 in 10.0 mi NNW 4.6 mph - N/A   Clear
11:15 PM 50.0 °F - 48.2 °F 94% 30.25 in 10.0 mi North 4.6 mph - N/A   Clear
11:35 PM 48.2 °F - 46.4 °F 93% 30.25 in 10.0 mi North 4.6 mph - N/A   Clear
11:55 PM 48.2 °F - 46.4 °F 93% 30.26 in 10.0 mi North 3.5 mph - N/A   Clear